period_start,C,m1,H,J0,J1,J2,J3,J4,J5,JA,JB,JC,JD,JJ,JK,JN,#
2014-05-24 00:00:53,0.13,4.85,0.00,28.30,32.57,34.85,9.36,43.42,1005.39,2013.11,1908.45,2200.26,2367.61,500.11,482.68,26.02,0000 0000 0000 0000 000000
2014-05-24 00:05:54,0.12,4.86,0.00,28.34,32.60,34.86,9.38,43.32,1005.37,2013.04,1907.39,2199.35,2366.75,500.15,482.48,26.06,0000 0000 0000 0000 000000
2014-05-24 00:10:55,0.13,4.86,0.00,28.36,32.60,34.88,9.39,43.17,1005.37,2013.06,1906.29,2198.45,2365.83,500.18,482.50,26.10,0000 0000 0000 0000 000000
2014-05-24 00:15:56,0.12,4.87,0.00,28.38,32.62,34.88,9.30,43.35,1005.36,2013.02,1905.19,2197.49,2364.88,499.81,482.32,26.14,0000 0000 0000 0000 000000
2014-05-24 00:20:58,0.09,4.87,0.00,28.43,32.64,34.89,9.34,43.23,1005.38,2013.00,1904.39,2196.85,2364.04,499.94,482.25,26.18,0000 0000 0000 0000 000000
2014-05-24 00:25:59,0.08,4.88,0.00,28.45,32.65,34.92,9.37,42.92,1005.39,2013.00,1903.83,2196.07,2363.27,500.30,482.63,26.22,0000 0000 0000 0000 000000
2014-05-24 00:31:00,0.12,4.88,0.00,28.46,32.67,34.93,9.31,43.15,1005.39,2013.00,1902.86,2195.41,2362.58,499.96,482.41,26.27,0000 0000 0000 0000 000000
2014-05-24 00:36:02,0.05,4.88,0.00,28.50,32.70,34.95,9.30,43.20,1005.39,2013.00,1902.01,2194.90,2361.93,500.15,482.37,26.31,0000 0000 0000 0000 000000
2014-05-24 00:41:03,0.12,4.89,0.00,28.52,32.71,34.96,9.29,43.17,1005.39,2013.00,1901.17,2194.08,2361.11,499.93,482.24,26.35,0000 0000 0000 0000 000000
2014-05-24 00:46:04,0.09,4.89,0.00,28.53,32.72,35.00,9.28,42.95,1005.39,2012.96,1900.61,2193.63,2360.48,499.84,482.00,26.39,0000 0000 0000 0000 000000
2014-05-24 00:51:06,0.04,4.89,0.00,28.57,32.75,35.01,9.33,43.06,1005.39,2012.91,1899.97,2193.02,2359.98,500.07,482.28,26.43,0000 0000 0000 0000 000000
2014-05-24 00:56:07,0.12,4.90,0.00,28.58,32.76,35.03,9.33,43.19,1005.40,2012.90,1899.13,2192.46,2359.23,499.98,482.07,26.48,0000 0000 0000 0000 000000
2014-05-24 01:01:08,0.06,4.90,0.00,28.60,32.78,35.05,9.34,43.18,1005.40,2012.78,1898.28,2191.86,2358.54,499.96,482.01,26.52,0000 0000 0000 0000 000000
2014-05-24 01:06:09,0.08,4.91,0.00,28.64,32.80,35.05,9.27,42.92,1005.41,2012.62,1897.42,2191.05,2357.68,499.96,482.05,26.56,0000 0000 0000 0000 000000
2014-05-24 01:11:11,0.01,4.91,0.00,28.67,32.82,35.08,9.29,42.93,1005.41,2012.33,1896.94,2190.32,2357.00,499.67,481.66,26.60,0000 0000 0000 0000 000000
2014-05-24 01:16:12,0.06,4.91,0.00,28.68,32.84,35.10,9.26,42.98,1005.40,2012.06,1896.14,2189.87,2356.25,499.90,481.89,26.64,0000 0000 0000 0000 000000
2014-05-24 01:21:13,0.10,4.91,0.00,28.72,32.86,35.12,9.28,42.81,1005.41,2012.03,1895.47,2189.13,2355.69,500.20,482.09,26.69,0000 0000 0000 0000 000000
2014-05-24 01:26:15,0.07,4.92,0.00,28.74,32.89,35.14,9.34,43.13,1005.45,2012.00,1894.81,2188.62,2354.97,500.17,482.04,26.73,0000 0000 0000 0000 000000
2014-05-24 01:31:16,0.08,4.92,0.00,28.75,32.91,35.17,9.28,43.00,1005.56,2012.00,1894.02,2187.95,2354.13,499.55,481.52,26.77,0000 0000 0000 0000 000000
2014-05-24 01:36:17,0.12,4.92,0.00,28.79,32.93,35.18,9.22,42.76,1005.49,2012.00,1893.18,2187.14,2353.47,499.89,481.64,26.81,0000 0000 0000 0000 000000
2014-05-24 01:41:18,0.08,4.93,0.00,28.82,32.95,35.19,9.33,42.89,1005.43,2011.99,1892.45,2186.67,2352.91,500.29,482.00,26.85,0000 0000 0000 0000 000000
2014-05-24 01:46:19,0.06,4.93,0.00,28.85,32.97,35.21,9.34,43.23,1005.63,2011.99,1891.95,2186.02,2352.10,500.16,481.89,26.89,0000 0000 0000 0000 000000
2014-05-24 01:51:20,0.09,4.93,0.00,28.89,32.99,35.23,9.27,43.05,1005.70,2011.93,1891.22,2185.42,2351.57,499.92,481.75,26.94,0000 0000 0000 0000 000000
2014-05-24 01:56:21,0.03,4.94,0.00,28.93,33.00,35.25,9.29,42.91,1005.78,2011.87,1890.82,2184.99,2350.99,500.06,482.04,26.98,0000 0000 0000 0000 000000
2014-05-24 02:01:22,0.03,4.94,0.00,28.95,33.02,35.27,9.32,42.99,1005.87,2011.36,1890.06,2184.27,2350.21,500.42,482.20,27.02,0000 0000 0000 0000 000000
2014-05-24 02:06:24,0.03,4.94,0.00,28.98,33.05,35.31,9.27,42.90,1005.87,2011.11,1889.38,2183.92,2349.83,499.81,481.50,27.06,0000 0000 0000 0000 000000
2014-05-24 02:11:25,0.06,4.94,0.00,29.03,33.07,35.32,9.24,42.73,1005.87,2011.03,1888.98,2183.16,2349.08,499.85,481.46,27.10,0000 0000 0000 0000 000000
2014-05-24 02:16:26,0.05,4.94,0.00,29.05,33.09,35.34,9.30,42.68,1005.87,2011.00,1888.42,2182.97,2348.70,500.07,481.45,27.15,0000 0000 0000 0000 000000
2014-05-24 02:21:27,0.06,4.95,0.00,29.08,33.11,35.36,9.35,43.03,1005.87,2011.00,1888.01,2182.44,2348.08,500.39,481.68,27.19,0000 0000 0000 0000 000000
2014-05-24 02:26:28,0.01,4.95,0.00,29.12,33.12,35.39,9.38,43.26,1005.87,2010.99,1887.89,2182.01,2347.99,500.16,481.64,27.23,0000 0000 0000 0000 000000
2014-05-24 02:31:29,0.06,4.95,0.00,29.15,33.15,35.41,9.31,42.95,1005.87,2010.99,1887.16,2181.95,2347.60,500.06,481.50,27.27,0000 0000 0000 0000 000000
2014-05-24 02:36:31,0.05,4.95,0.00,29.17,33.17,35.43,9.30,42.46,1005.89,2010.96,1886.92,2181.43,2347.03,499.63,481.07,27.31,0000 0000 0000 0000 000000
2014-05-24 02:41:32,0.08,4.96,0.00,29.21,33.19,35.46,9.18,42.73,1005.93,2010.92,1886.13,2180.96,2346.46,499.97,481.46,27.36,0000 0000 0000 0000 000000
2014-05-24 02:46:33,0.03,4.96,0.00,29.24,33.21,35.49,9.30,43.33,1006.26,2010.70,1885.82,2180.26,2346.00,500.03,481.53,27.40,0000 0000 0000 0000 000000
2014-05-24 02:51:34,0.02,4.96,0.00,29.25,33.22,35.50,9.28,43.01,1006.36,2010.56,1885.14,2180.00,2345.80,499.74,481.53,27.44,0000 0000 0000 0000 000000
2014-05-24 02:56:36,-0.02,4.96,0.00,29.28,33.25,35.53,9.30,42.83,1006.36,2010.20,1885.00,2179.94,2345.13,499.97,481.54,27.48,0000 0000 0000 0000 000000
2014-05-24 03:01:37,0.04,4.96,0.00,29.31,33.27,35.55,9.20,42.52,1006.37,2010.05,1884.73,2179.43,2344.99,500.02,481.56,27.52,0000 0000 0000 0000 000000
2014-05-24 03:06:38,0.06,4.96,0.00,29.32,33.29,35.58,9.36,42.76,1006.37,2010.01,1884.04,2179.02,2344.57,499.81,481.22,27.57,0000 0000 0000 0000 000000
2014-05-24 03:11:39,0.04,4.96,0.00,29.33,33.31,35.60,9.31,42.96,1006.37,2010.01,1883.77,2178.85,2344.03,499.61,481.03,27.61,0000 0000 0000 0000 000000
2014-05-24 03:16:40,0.08,4.97,0.00,29.38,33.33,35.62,9.27,42.96,1006.37,2010.00,1883.08,2178.15,2343.78,499.77,481.00,27.65,0000 0000 0000 0000 000000
2014-05-24 03:21:41,0.04,4.97,0.00,29.40,33.35,35.65,9.27,42.74,1006.37,2010.00,1882.87,2177.92,2343.06,499.84,481.28,27.69,0000 0000 0000 0000 000000
2014-05-24 03:26:42,0.09,4.97,0.00,29.40,33.37,35.66,9.31,42.84,1006.38,2009.99,1882.12,2177.17,2342.66,499.88,481.12,27.73,0000 0000 0000 0000 000000
2014-05-24 03:31:43,0.01,4.98,0.00,29.42,33.40,35.68,9.29,42.53,1006.53,2009.97,1881.97,2177.00,2342.03,500.28,481.50,27.78,0000 0000 0000 0000 000000
2014-05-24 03:36:45,0.04,4.98,0.00,29.47,33.42,35.71,9.27,42.60,1006.65,2009.94,1881.35,2176.80,2341.96,499.68,481.06,27.82,0000 0000 0000 0000 000000
2014-05-24 03:41:46,0.05,4.98,0.00,29.49,33.44,35.73,9.32,42.77,1006.81,2009.80,1881.02,2176.11,2341.33,500.60,481.75,27.86,0000 0000 0000 0000 000000
2014-05-24 03:46:47,-0.05,4.98,0.00,29.49,33.46,35.75,9.27,42.69,1006.85,2009.42,1880.99,2176.00,2341.00,500.13,481.58,27.90,0000 0000 0000 0000 000000
2014-05-24 03:51:48,0.02,4.98,0.00,29.51,33.49,35.78,9.28,42.66,1006.85,2009.23,1880.53,2175.87,2340.95,500.06,481.40,27.94,0000 0000 0000 0000 000000
2014-05-24 03:56:49,0.05,4.98,0.00,29.55,33.51,35.80,9.21,42.69,1006.86,2009.06,1880.04,2175.22,2340.40,499.95,481.18,27.99,0000 0000 0000 0000 000000
2014-05-24 04:01:51,0.08,4.98,0.00,29.55,33.53,35.82,9.25,42.55,1006.86,2009.01,1879.51,2174.80,2339.76,499.90,481.30,28.03,0000 0000 0000 0000 000000
2014-05-24 04:06:52,0.10,4.99,0.00,29.57,33.55,35.84,9.33,42.85,1006.96,2009.00,1878.18,2174.04,2339.02,499.82,481.04,28.07,0000 0000 0000 0000 000000
2014-05-24 04:11:53,0.02,4.99,0.00,29.59,33.57,35.87,9.26,42.91,1007.10,2009.00,1878.00,2173.97,2338.70,500.22,481.49,28.11,0000 0000 0000 0000 000000
2014-05-24 04:16:54,0.04,4.99,0.00,29.60,33.60,35.88,9.29,42.82,1007.24,2008.98,1877.98,2173.61,2338.06,499.91,481.33,28.15,0000 0000 0000 0000 000000
2014-05-24 04:21:55,0.03,4.99,0.00,29.60,33.62,35.90,9.35,42.58,1007.23,2008.94,1877.74,2173.10,2338.00,499.94,481.42,28.19,0000 0000 0000 0000 000000
2014-05-24 04:26:56,-0.00,4.99,0.00,29.62,33.64,35.93,9.36,42.73,1007.33,2008.73,1877.11,2173.00,2337.87,499.97,481.43,28.24,0000 0000 0000 0000 000000
2014-05-24 04:31:57,-0.02,4.99,0.00,29.65,33.66,35.94,9.27,42.70,1007.34,2008.42,1877.00,2172.96,2337.26,499.77,481.41,28.28,0000 0000 0000 0000 000000
2014-05-24 04:36:58,-0.00,4.99,0.00,29.65,33.68,35.98,9.28,42.63,1007.34,2008.22,1876.96,2172.63,2337.03,500.11,481.49,28.32,0000 0000 0000 0000 000000
2014-05-24 04:41:59,0.03,4.99,0.00,29.65,33.70,35.99,9.33,42.81,1007.35,2008.08,1876.58,2172.11,2336.99,499.88,481.24,28.36,0000 0000 0000 0000 000000
2014-05-24 04:47:00,0.01,4.99,0.00,29.66,33.71,36.00,9.32,42.58,1007.36,2008.02,1876.14,2172.00,2336.85,500.29,481.60,28.40,0000 0000 0000 0000 000000
2014-05-24 04:52:01,0.02,5.00,0.00,29.67,33.73,36.02,9.33,42.52,1007.35,2008.00,1876.01,2171.99,2336.25,500.07,481.43,28.45,0000 0000 0000 0000 000000
2014-05-24 04:57:02,0.00,5.00,0.00,29.68,33.75,36.03,9.42,42.51,1007.36,2008.00,1876.00,2171.93,2336.02,500.25,481.68,28.49,0000 0000 0000 0000 000000
2014-05-24 05:02:03,0.04,5.00,0.00,29.67,33.77,36.05,9.21,42.58,1007.36,2008.00,1875.90,2171.50,2336.00,499.84,481.15,28.53,0000 0000 0000 0000 000000
2014-05-24 05:07:04,0.05,5.00,0.00,29.70,33.79,36.06,9.24,42.53,1007.44,2008.00,1875.45,2171.07,2335.90,499.62,481.03,28.57,0000 0000 0000 0000 000000
2014-05-24 05:12:05,0.02,5.00,0.00,29.72,33.81,36.09,9.19,42.58,1007.65,2007.97,1875.07,2171.00,2335.39,499.94,481.33,28.61,0000 0000 0000 0000 000000
2014-05-24 05:17:07,-0.01,5.00,0.00,29.72,33.83,36.10,9.18,42.48,1007.77,2007.89,1875.00,2170.99,2335.02,499.77,481.27,28.66,0000 0000 0000 0000 000000
2014-05-24 05:22:08,-0.02,5.00,0.00,29.72,33.85,36.11,9.34,42.46,1007.81,2007.69,1874.98,2170.74,2334.99,499.78,481.25,28.70,0000 0000 0000 0000 000000
2014-05-24 05:27:09,0.05,5.00,0.00,29.76,33.87,36.13,9.28,42.45,1007.83,2007.42,1874.41,2170.12,2334.78,500.11,481.49,28.74,0000 0000 0000 0000 000000
2014-05-24 05:32:10,-0.00,5.00,0.00,29.77,33.88,36.16,9.21,42.65,1007.83,2007.17,1874.04,2170.00,2334.14,499.86,481.23,28.78,0000 0000 0000 0000 000000
2014-05-24 05:37:12,0.01,5.00,0.00,29.77,33.90,36.17,9.42,42.48,1007.83,2007.10,1873.97,2169.97,2334.00,500.70,482.03,28.82,0000 0000 0000 0000 000000
2014-05-24 05:42:13,0.05,5.00,0.00,29.77,33.92,36.18,9.28,43.27,1007.83,2007.10,1873.48,2169.63,2333.98,500.03,481.41,28.86,0000 0000 0000 0000 000000
2014-05-24 05:47:13,0.05,5.01,0.00,29.80,33.93,36.19,9.25,42.97,1007.83,2007.05,1873.04,2169.11,2333.61,499.94,481.39,28.91,0000 0000 0000 0000 000000
2014-05-24 05:52:14,0.01,5.01,0.00,29.82,33.95,36.21,9.25,42.57,1007.84,2007.00,1873.00,2169.00,2333.05,499.69,481.13,28.95,0000 0000 0000 0000 000000
2014-05-24 05:57:16,0.01,5.01,0.00,29.82,33.96,36.22,9.26,42.33,1007.91,2007.00,1872.96,2168.96,2333.00,499.92,481.26,28.99,0000 0000 0000 0000 000000
2014-05-24 06:02:17,0.09,5.01,0.00,29.82,33.97,36.23,9.27,42.79,1007.88,2007.00,1872.24,2168.43,2332.69,500.21,481.61,29.03,0000 0000 0000 0000 000000
2014-05-24 06:07:18,0.03,5.01,0.00,29.84,33.99,36.25,9.19,42.33,1007.99,2007.00,1871.95,2168.01,2332.04,500.28,481.62,29.07,0000 0000 0000 0000 000000
2014-05-24 06:12:19,0.06,5.01,0.00,29.85,34.00,36.26,9.29,42.31,1008.12,2007.00,1871.32,2167.79,2331.78,499.94,481.41,29.12,0000 0000 0000 0000 000000
2014-05-24 06:17:20,0.06,5.02,0.00,29.85,34.02,36.28,9.26,42.35,1008.27,2006.98,1871.00,2167.08,2331.07,499.88,481.35,29.16,0000 0000 0000 0000 000000
2014-05-24 06:22:22,0.04,5.02,0.00,29.85,34.03,36.30,9.43,42.42,1008.29,2006.95,1870.58,2166.94,2330.91,500.39,482.09,29.20,0000 0000 0000 0000 000000
2014-05-24 06:27:23,0.08,5.02,0.00,29.88,34.05,36.31,9.36,42.41,1008.31,2006.95,1870.02,2166.29,2330.17,500.17,481.73,29.24,0000 0000 0000 0000 000000
2014-05-24 06:32:24,0.05,5.02,0.00,29.90,34.06,36.32,9.37,42.28,1008.31,2006.90,1869.51,2165.97,2329.89,500.35,481.67,29.28,0000 0000 0000 0000 000000
2014-05-24 06:37:25,0.09,5.03,0.00,29.90,34.07,36.33,9.26,42.39,1008.32,2006.89,1868.99,2165.28,2329.09,499.27,480.75,29.33,0000 0000 0000 0000 000000
2014-05-24 06:42:27,0.05,5.03,0.00,29.91,34.09,36.34,9.18,42.49,1008.32,2006.84,1868.41,2164.93,2328.71,499.68,481.07,29.37,0000 0000 0000 0000 000000
2014-05-24 06:47:28,0.06,5.03,0.00,29.93,34.10,36.35,9.26,43.04,1008.32,2006.59,1867.60,2164.10,2328.00,499.82,481.19,29.41,0000 0000 0000 0000 000000
2014-05-24 06:52:29,0.06,5.04,0.00,29.95,34.11,36.36,9.22,43.06,1008.33,2006.33,1866.94,2163.60,2327.20,499.35,480.86,29.45,0000 0000 0000 0000 000000
2014-05-24 06:57:30,0.05,5.04,0.00,29.95,34.12,36.37,9.32,42.94,1008.32,2006.12,1866.11,2163.00,2326.57,500.13,481.39,29.49,0000 0000 0000 0000 000000
2014-05-24 07:02:32,0.10,5.04,0.00,29.95,34.13,36.39,9.35,42.43,1008.33,2006.04,1865.48,2162.27,2325.92,500.29,481.57,29.54,0000 0000 0000 0000 000000
2014-05-24 07:07:33,0.06,5.05,0.00,29.97,34.15,36.39,9.31,42.53,1008.35,2006.01,1864.83,2161.80,2325.10,500.18,481.45,29.58,0000 0000 0000 0000 000000
2014-05-24 07:12:34,0.09,5.05,0.00,30.00,34.15,36.41,9.32,42.63,1008.37,2006.00,1864.09,2161.07,2324.59,500.16,481.59,29.62,0000 0000 0000 0000 000000
2014-05-24 07:17:36,0.06,5.05,0.00,30.01,34.16,36.42,9.20,42.60,1008.42,2006.00,1863.69,2160.66,2323.98,499.94,481.13,29.66,0000 0000 0000 0000 000000
2014-05-24 07:22:37,0.07,5.06,0.00,30.02,34.17,36.42,9.31,42.43,1008.48,2006.00,1863.02,2160.03,2323.20,499.91,481.14,29.70,0000 0000 0000 0000 000000
2014-05-24 07:27:38,0.06,5.06,0.00,30.02,34.18,36.44,9.23,42.23,1008.48,2006.00,1862.38,2159.79,2322.95,499.85,481.05,29.75,0000 0000 0000 0000 000000
2014-05-24 07:32:39,0.07,5.06,0.00,30.05,34.20,36.44,9.24,42.33,1008.50,2006.00,1861.99,2159.07,2322.18,500.05,481.34,29.79,0000 0000 0000 0000 000000
2014-05-24 07:37:40,0.07,5.06,0.00,30.05,34.20,36.45,9.28,42.33,1008.65,2006.00,1861.32,2158.79,2321.87,499.90,481.18,29.83,0000 0000 0000 0000 000000
2014-05-24 07:42:42,0.13,5.07,0.00,30.05,34.22,36.46,9.22,42.26,1008.68,2005.99,1860.31,2157.87,2320.91,500.02,481.47,29.87,0000 0000 0000 0000 000000
2014-05-24 07:47:43,0.13,5.08,0.00,30.06,34.23,36.47,9.32,42.60,1008.75,2005.98,1859.23,2156.94,2319.95,499.95,481.41,29.91,0000 0000 0000 0000 000000
2014-05-24 07:52:45,0.12,5.08,0.00,30.11,34.24,36.48,9.29,43.13,1008.79,2005.96,1858.15,2156.07,2318.99,499.84,481.40,29.96,0000 0000 0000 0000 000000
2014-05-24 07:57:46,0.13,5.09,0.00,30.12,34.25,36.49,9.26,42.61,1008.79,2005.97,1857.18,2155.24,2318.09,499.82,481.29,30.00,0000 0000 0000 0000 000000
2014-05-24 08:02:47,0.10,5.09,0.00,30.12,34.26,36.50,9.28,42.96,1008.80,2005.96,1856.46,2154.67,2317.44,499.90,481.24,30.04,0000 0000 0000 0000 000000
2014-05-24 08:07:49,0.10,5.09,0.00,30.11,34.27,36.51,9.32,43.02,1008.80,2005.92,1855.59,2153.81,2316.60,500.31,481.62,30.08,0000 0000 0000 0000 000000
2014-05-24 08:12:50,0.18,5.10,0.00,30.12,34.27,36.53,9.29,42.61,1008.82,2005.89,1854.50,2152.61,2315.30,500.09,481.45,30.12,0000 0000 0000 0000 000000
2014-05-24 08:17:51,0.17,5.11,0.00,30.12,34.28,36.54,9.26,42.48,1008.84,2005.86,1853.21,2151.30,2313.78,499.67,481.26,30.16,0000 0000 0000 0000 000000
2014-05-24 08:22:52,0.07,5.11,0.00,30.12,34.30,36.54,9.33,42.73,1008.87,2005.38,1852.12,2149.95,2312.40,500.25,481.54,30.21,0000 0000 0000 0000 000000
2014-05-24 08:27:54,0.12,5.12,0.00,30.12,34.30,36.56,9.38,42.49,1009.00,2005.14,1851.06,2148.89,2311.24,500.24,481.67,30.25,0000 0000 0000 0000 000000
2014-05-24 08:32:55,0.11,5.12,0.00,30.13,34.30,36.56,9.31,42.42,1009.13,2005.03,1850.05,2148.03,2310.21,500.06,481.52,30.29,0000 0000 0000 0000 000000
2014-05-24 08:37:56,0.11,5.13,0.00,30.15,34.32,36.57,9.30,42.20,1009.13,2005.04,1849.23,2147.26,2309.78,499.83,481.26,30.33,0000 0000 0000 0000 000000
2014-05-24 08:42:57,0.02,5.13,0.00,30.13,34.32,36.58,9.25,42.27,1009.11,2005.03,1848.99,2147.01,2309.09,499.83,481.30,30.37,0000 0000 0000 0000 000000
2014-05-24 08:47:58,0.04,5.13,0.00,30.12,34.32,36.59,9.25,42.25,1009.06,2005.00,1848.53,2146.90,2309.00,500.03,481.44,30.42,0000 0000 0000 0000 000000
2014-05-24 08:52:59,0.08,5.13,0.00,30.12,34.34,36.60,9.33,42.30,1008.92,2005.01,1847.99,2146.27,2308.57,500.28,481.74,30.46,0000 0000 0000 0000 000000
2014-05-24 08:58:00,0.06,5.14,0.00,30.13,34.35,36.61,9.30,42.17,1009.09,2005.01,1847.23,2145.87,2307.98,500.10,481.54,30.50,0000 0000 0000 0000 000000
2014-05-24 09:03:01,0.11,5.14,0.00,30.12,34.35,36.61,9.19,42.41,1009.19,2005.00,1846.49,2145.10,2307.18,499.76,481.17,30.54,0000 0000 0000 0000 000000
2014-05-24 09:08:02,0.01,5.14,0.00,30.11,34.35,36.62,9.31,42.96,1009.27,2005.00,1846.08,2144.97,2306.97,500.27,481.78,30.58,0000 0000 0000 0000 000000
2014-05-24 09:13:03,0.01,5.14,0.00,30.10,34.35,36.62,9.31,42.75,1009.29,2005.00,1846.03,2144.88,2306.85,499.95,481.64,30.63,0000 0000 0000 0000 000000
2014-05-24 09:18:05,0.05,5.15,0.00,30.12,34.37,36.63,9.35,42.63,1009.29,2005.00,1846.00,2144.44,2306.28,500.22,481.80,30.67,0000 0000 0000 0000 000000
2014-05-24 09:23:06,0.02,5.15,0.00,30.11,34.37,36.64,9.40,42.40,1009.30,2005.00,1845.98,2144.10,2306.04,500.32,482.07,30.71,0000 0000 0000 0000 000000
2014-05-24 09:28:07,0.03,5.15,0.00,30.08,34.37,36.65,9.38,42.39,1009.31,2005.00,1845.62,2144.01,2306.00,500.23,481.90,30.75,0000 0000 0000 0000 000000
2014-05-24 09:33:08,0.01,5.15,0.00,30.07,34.37,36.65,9.21,42.27,1009.46,2004.99,1845.27,2144.00,2305.99,499.88,481.65,30.79,0000 0000 0000 0000 000000
2014-05-24 09:38:09,0.01,5.15,0.00,30.08,34.37,36.66,9.34,42.25,1009.65,2004.99,1845.04,2144.00,2305.96,499.94,481.67,30.83,0000 0000 0000 0000 000000
2014-05-24 09:43:10,0.00,5.15,0.00,30.06,34.37,36.66,9.33,42.17,1009.76,2004.99,1845.00,2143.99,2305.86,500.05,481.97,30.88,0000 0000 0000 0000 000000
2014-05-24 09:48:11,0.07,5.15,0.00,30.04,34.37,36.66,9.29,42.58,1009.78,2004.99,1844.92,2143.60,2305.23,499.96,481.96,30.92,0000 0000 0000 0000 000000
2014-05-24 09:53:11,0.05,5.16,0.00,30.02,34.37,36.66,9.22,42.50,1009.78,2004.98,1844.21,2143.05,2305.00,499.89,481.87,30.96,0000 0000 0000 0000 000000
2014-05-24 09:58:12,0.01,5.16,0.00,30.03,34.37,36.65,9.31,42.41,1009.79,2004.99,1844.01,2143.00,2304.95,500.09,482.21,31.00,0000 0000 0000 0000 000000
2014-05-24 10:03:13,0.00,5.16,0.00,30.02,34.37,36.64,9.41,42.26,1009.80,2004.99,1844.00,2142.98,2304.84,500.10,482.12,31.04,0000 0000 0000 0000 000000
2014-05-24 10:08:14,0.04,5.16,0.00,29.99,34.36,36.64,9.33,42.28,1009.79,2004.99,1843.88,2142.89,2304.33,499.98,481.95,31.09,0000 0000 0000 0000 000000
2014-05-24 10:13:15,0.04,5.16,0.00,29.97,34.35,36.64,9.33,42.23,1009.84,2004.99,1843.48,2142.67,2304.05,500.08,482.13,31.13,0000 0000 0000 0000 000000
2014-05-24 10:18:16,0.03,5.16,0.00,29.97,34.35,36.63,9.23,42.09,1010.00,2004.99,1843.06,2142.28,2304.00,499.67,481.69,31.17,0000 0000 0000 0000 000000
2014-05-24 10:23:18,0.01,5.16,0.00,29.96,34.35,36.63,9.40,42.27,1010.16,2004.99,1843.01,2142.03,2304.00,500.18,482.37,31.21,0000 0000 0000 0000 000000
2014-05-24 10:28:19,0.00,5.16,0.00,29.94,34.35,36.63,9.35,42.35,1010.17,2004.99,1843.00,2142.01,2303.99,500.51,482.74,31.25,0000 0000 0000 0000 000000
2014-05-24 10:33:20,0.00,5.16,0.00,29.92,34.35,36.62,9.24,42.26,1010.22,2004.99,1842.96,2142.00,2303.91,499.94,482.23,31.30,0000 0000 0000 0000 000000
2014-05-24 10:38:21,0.01,5.16,0.00,29.91,34.35,36.62,9.46,42.25,1010.26,2004.99,1842.81,2142.00,2303.73,500.48,482.90,31.34,0000 0000 0000 0000 000000
2014-05-24 10:43:23,0.06,5.16,0.00,29.89,34.35,36.64,9.39,42.30,1010.25,2004.99,1842.21,2141.94,2303.18,500.40,482.72,31.38,0000 0000 0000 0000 000000
2014-05-24 10:48:24,0.03,5.17,0.00,29.85,34.33,36.63,9.32,42.22,1010.24,2004.99,1842.02,2141.65,2303.02,499.98,482.33,31.42,0000 0000 0000 0000 000000
2014-05-24 10:53:25,0.06,5.17,0.00,29.84,34.33,36.63,9.29,42.23,1010.25,2004.99,1841.69,2141.06,2302.87,499.85,482.29,31.46,0000 0000 0000 0000 000000
2014-05-24 10:58:26,0.16,5.17,0.00,29.83,34.32,36.62,9.37,42.30,1010.27,2004.99,1840.52,2140.21,2301.79,499.99,482.55,31.51,0000 0000 0000 0000 000000
2014-05-24 11:03:27,0.11,5.18,0.00,29.79,34.32,36.62,9.32,42.25,1010.27,2005.00,1839.66,2139.26,2300.96,500.11,482.62,31.55,0000 0000 0000 0000 000000
2014-05-24 11:08:28,0.06,5.18,0.00,29.77,34.30,36.61,9.35,42.17,1010.27,2005.00,1838.99,2138.88,2300.13,500.58,483.12,31.59,0000 0000 0000 0000 000000
2014-05-24 11:13:30,0.11,5.19,0.00,29.76,34.30,36.60,9.32,42.19,1010.27,2005.00,1838.20,2138.09,2299.73,500.01,482.38,31.63,0000 0000 0000 0000 000000
2014-05-24 11:18:31,0.14,5.19,0.00,29.73,34.30,36.59,9.33,42.17,1010.27,2005.00,1837.19,2137.23,2298.70,499.81,482.50,31.67,0000 0000 0000 0000 000000
2014-05-24 11:23:32,0.15,5.20,0.00,29.69,34.28,36.58,9.25,42.14,1010.27,2005.00,1836.02,2136.16,2297.53,499.49,482.18,31.71,0000 0000 0000 0000 000000
2014-05-24 11:28:34,0.14,5.21,0.00,29.67,34.27,36.57,9.39,43.06,1010.29,2005.00,1834.87,2135.19,2296.55,500.50,483.17,31.76,0000 0000 0000 0000 000000
2014-05-24 11:33:35,0.10,5.21,0.00,29.67,34.25,36.56,9.33,43.23,1010.29,2005.01,1834.04,2134.34,2295.91,499.88,482.69,31.80,0000 0000 0000 0000 000000
2014-05-24 11:38:37,0.06,5.21,0.00,29.64,34.25,36.55,9.35,42.87,1010.35,2005.03,1833.66,2134.00,2295.22,499.79,482.54,31.84,0000 0000 0000 0000 000000
2014-05-24 11:43:38,0.06,5.22,0.00,29.62,34.23,36.53,9.37,42.70,1010.69,2005.10,1833.04,2133.78,2294.99,500.14,483.11,31.88,0000 0000 0000 0000 000000
2014-05-24 11:48:39,0.08,5.22,0.00,29.61,34.22,36.51,9.33,42.48,1010.76,2005.11,1832.70,2133.05,2294.33,499.89,482.90,31.92,0000 0000 0000 0000 000000
2014-05-24 11:53:40,0.08,5.22,0.00,29.58,34.20,36.51,9.35,42.82,1010.76,2005.22,1832.02,2132.78,2293.96,500.41,483.56,31.97,0000 0000 0000 0000 000000
2014-05-24 11:58:41,0.12,5.23,0.00,29.54,34.19,36.48,9.37,43.25,1010.76,2005.45,1831.50,2132.06,2293.17,500.07,483.21,32.01,0000 0000 0000 0000 000000
2014-05-24 12:03:43,0.18,5.23,0.00,29.52,34.17,36.47,9.35,43.17,1010.76,2005.68,1830.52,2131.26,2292.35,499.88,483.16,32.05,0000 0000 0000 0000 000000
2014-05-24 12:08:44,0.05,5.24,0.00,29.50,34.15,36.46,9.38,42.73,1010.76,2005.85,1829.99,2130.92,2291.94,499.79,483.31,32.09,0000 0000 0000 0000 000000
2014-05-24 12:13:45,0.09,5.24,0.00,29.46,34.14,36.44,9.35,42.48,1010.76,2005.95,1829.56,2130.42,2291.40,500.18,483.61,32.13,0000 0000 0000 0000 000000
2014-05-24 12:18:46,0.04,5.24,0.00,29.43,34.12,36.43,9.30,42.46,1010.76,2005.98,1829.07,2130.03,2291.04,499.51,483.13,32.18,0000 0000 0000 0000 000000
2014-05-24 12:23:48,-0.00,5.24,0.00,29.42,34.10,36.42,9.25,42.39,1010.76,2005.97,1829.00,2130.00,2291.00,499.72,483.10,32.22,0000 0000 0000 0000 000000
2014-05-24 12:28:48,0.00,5.24,0.00,29.39,34.09,36.39,9.35,42.75,1010.76,2005.99,1828.99,2130.00,2290.98,499.90,483.31,32.26,0000 0000 0000 0000 000000
2014-05-24 12:33:49,0.07,5.25,0.00,29.35,34.07,36.36,9.35,42.83,1010.76,2005.99,1828.48,2129.84,2290.60,500.11,483.62,32.30,0000 0000 0000 0000 000000
2014-05-24 12:38:51,0.06,5.25,0.00,29.34,34.05,36.35,9.39,42.76,1010.77,2005.99,1828.01,2129.20,2290.03,499.96,483.47,32.34,0000 0000 0000 0000 000000
2014-05-24 12:43:52,0.05,5.25,0.00,29.30,34.03,36.33,9.27,42.47,1010.78,2006.00,1827.46,2129.00,2289.93,499.93,483.44,32.38,0000 0000 0000 0000 000000
2014-05-24 12:48:53,0.04,5.25,0.00,29.27,34.01,36.31,9.23,42.29,1010.78,2006.00,1827.01,2128.93,2289.20,499.68,483.24,32.42,0000 0000 0000 0000 000000
2014-05-24 12:53:54,0.03,5.26,0.00,29.25,34.00,36.30,9.21,42.21,1010.78,2006.04,1826.98,2128.62,2289.01,499.63,483.05,32.47,0000 0000 0000 0000 000000
2014-05-24 12:58:55,0.03,5.26,0.00,29.22,33.97,36.26,9.38,42.59,1010.78,2006.13,1826.81,2128.43,2289.00,499.88,483.61,32.51,0000 0000 0000 0000 000000